Weather History for Park Rapids, MN

Change the Weather History Date:

Tuesday, January 7, 2014

  Actual Average Record
Temperature  
Mean Temperature -14 °F -  
Max Temperature -4 °F 11 °F 43 °F (2003)
Min Temperature -24 °F -11 °F -35 °F (1973)
Degree Days  
Heating Degree Days 79    
Moisture  
Dew Point -21 °F    
Average Humidity 77    
Maximum Humidity 86    
Minimum Humidity 69    
Precipitation  
Precipitation 0.00 in - - ()
Sea Level Pressure  
Sea Level Pressure 30.18 in    
Wind  
Wind Speed 6 mph (West)    
Max Wind Speed 14 mph    
Max Gust Speed -    
Visibility 10 miles    
Events      
Averages and records for this station are not official NWS values.
T = Trace of Precipitation, MM = Missing Value Source: NWS Daily Summary

Daily Weather History Graph

Daily Weather History Graph

Search for Another Location

Airport:

Trip Planner

Search our weather history database for the weather conditions in past years. The results will help you decide how hot, cold, wet, or windy it might be!

Date:

Astronomy

Jan. 07, 2014 Rise Set
Actual Time 8:04 AM CST 4:48 PM CST
Civil Twilight 7:30 AM CST 5:23 PM CST
Nautical Twilight 6:51 AM CST 6:01 PM CST
Astronomical Twilight 6:15 AM CST 6:38 PM CST
Moon 11:25 AM CST (1/7) No Moon Set
Length of Visible Light 9h 53m
Length of Day
8h 43m
Waxing Crescent, 46% of the Moon is Illuminated
Jan 7
Waxing Crescent
Jan 7
First Quarter
Jan 15
Full
Jan 23
Last Quarter
Jan 30
New

Hourly Weather History & Observations

Time (CST) Temp. Windchill Dew Point Humidity Pressure Visibility Wind Dir Wind Speed Gust Speed Precip Events Conditions
12:49 AM -22.0 °F -39.4 °F -25.6 °F 83% 29.99 in 10.0 mi West 6.9 mph - N/A   Scattered Clouds
12:53 AM -22.0 °F -39.4 °F -26.0 °F 82% 30.17 in 10.0 mi West 6.9 mph - N/A   Partly Cloudy
1:53 AM -22.0 °F -33.0 °F -27.0 °F 77% 30.15 in 10.0 mi WSW 3.5 mph - N/A   Partly Cloudy
2:53 AM -20.9 °F -36.4 °F -27.0 °F 73% 30.15 in 10.0 mi WSW 5.8 mph - N/A   Scattered Clouds
3:53 AM -20.9 °F -34.3 °F -27.0 °F 73% 30.14 in 10.0 mi SW 4.6 mph - N/A   Mostly Cloudy
4:53 AM -24.0 °F -43.4 °F -29.0 °F 77% 30.15 in 10.0 mi SW 8.1 mph - N/A   Clear
5:53 AM -22.0 °F - -27.9 °F 74% 30.15 in 10.0 mi Calm Calm - N/A   Scattered Clouds
6:03 AM -22.0 °F - -25.1 °F 86% 29.97 in 10.0 mi Calm Calm - N/A   Mostly Cloudy
6:53 AM -20.9 °F -34.3 °F -24.0 °F 86% 30.15 in 10.0 mi SW 4.6 mph - N/A   Overcast
7:05 AM -18.9 °F -32.0 °F -25.1 °F 74% 29.97 in 10.0 mi SW 4.6 mph - N/A   Overcast
7:33 AM -17.0 °F -29.7 °F -23.1 °F 74% 29.97 in 10.0 mi WSW 4.6 mph - N/A   Overcast
7:53 AM -17.0 °F -29.7 °F -20.9 °F 82% 30.16 in 10.0 mi West 4.6 mph - N/A   Overcast
8:53 AM -17.0 °F -27.2 °F -20.9 °F 82% 30.19 in 10.0 mi NW 3.5 mph - N/A   Mostly Cloudy
9:00 AM -17.0 °F -27.2 °F -22.0 °F 78% 30.01 in 10.0 mi NW 3.5 mph - N/A   Scattered Clouds
9:53 AM -15.0 °F -27.4 °F -18.9 °F 82% 30.19 in 10.0 mi WNW 4.6 mph - N/A   Clear
10:53 AM -11.0 °F -24.6 °F -16.1 °F 78% 30.19 in 10.0 mi NW 5.8 mph - N/A   Clear
11:53 AM -7.1 °F -25.0 °F -14.1 °F 72% 30.18 in 10.0 mi WNW 10.4 mph - N/A   Clear
12:53 PM -5.1 °F -25.1 °F -13.0 °F 69% 30.18 in 10.0 mi NW 13.8 mph - N/A   Clear
1:53 PM -4.0 °F -22.1 °F -11.9 °F 69% 30.19 in 10.0 mi West 11.5 mph - N/A   Clear
2:53 PM -4.0 °F -22.1 °F -11.9 °F 69% 30.21 in 10.0 mi WNW 11.5 mph - N/A   Clear
3:53 PM -6.0 °F -25.5 °F -13.0 °F 72% 30.22 in 10.0 mi WNW 12.7 mph - N/A   Clear
4:53 PM -7.1 °F -23.9 °F -14.1 °F 72% 30.24 in 10.0 mi WNW 9.2 mph - N/A   Clear
5:53 PM -9.0 °F -25.2 °F -16.1 °F 71% 30.27 in 10.0 mi WNW 8.1 mph - N/A   Clear
6:53 PM -14.1 °F -29.9 °F -18.9 °F 79% 30.28 in 10.0 mi WNW 6.9 mph - N/A   Clear
7:53 PM -17.0 °F -34.8 °F -22.0 °F 78% 30.30 in 10.0 mi NW 8.1 mph - N/A   Clear
8:53 PM -16.1 °F -35.0 °F -20.9 °F 79% 30.31 in 10.0 mi NW 9.2 mph - N/A   Clear
9:53 PM -18.9 °F -34.0 °F -24.0 °F 78% 30.34 in 10.0 mi WNW 5.8 mph - N/A   Clear
10:53 PM -22.0 °F -35.6 °F -27.9 °F 74% 30.35 in 10.0 mi WNW 4.6 mph - N/A   Clear
11:53 PM -22.0 °F -35.6 °F -26.0 °F 82% 30.34 in 10.0 mi WNW 4.6 mph - N/A   Clear